Overview Statistics Trail Chart Weather Telemetry Raw packets
 

This is the latest recevied weather packets stored in our database for station/object SP3VBV-2. If no packets are shown the sender has not sent any weather packets the latest 10 day(s).

<< 1 2 3 4 5 6 >>
Time Temp. Humidity Pressure Rain* Wind** Luminosity Snow
1788542355 23.33° C 66% 1007.2 hPa - - - -
1788541755 23.33° C 65% 1007.3 hPa - - - -
1788541155 23.33° C 65% 1007.5 hPa - - - -
1788540555 23.33° C 65% 1007.5 hPa - - - -
1788539955 23.89° C 64% 1007.4 hPa - - - -
1788539355 23.89° C 64% 1007.5 hPa - - - -
1788538755 23.89° C 63% 1007.7 hPa - - - -
1788537555 23.89° C 63% 1007.6 hPa - - - -
1788536955 23.89° C 62% 1007.8 hPa - - - -
1788536355 23.89° C 61% 1008 hPa - - - -
1788535755 23.89° C 60% 1008.1 hPa - - - -
1788535155 23.89° C 61% 1008.1 hPa - - - -
1788534555 23.89° C 63% 1008.2 hPa - - - -
1788533955 23.89° C 61% 1008.3 hPa - - - -
1788533355 23.89° C 61% 1008.6 hPa - - - -
1788532755 23.89° C 60% 1008.8 hPa - - - -
1788532175 24.44° C 62% 1008.9 hPa - - - -
1788531555 23.89° C 63% 1009.2 hPa - - - -
1788530955 23.33° C 65% 1009.3 hPa - - - -
1788530355 23.33° C 67% 1009.4 hPa - - - -
1788529755 22.78° C 68% 1009.7 hPa - - - -
1788529165 22.78° C 70% 1009.7 hPa - - - -
1788528555 22.78° C 72% 1010.1 hPa - - - -
1788527955 22.78° C 70% 1010.1 hPa - - - -
1788527355 22.78° C 71% 1010.4 hPa - - - -

* Rain since midnight (hover to see other rain measurements)
** Current wind speed in m/s (hover to see current wind gust speed)